{"data":{"norad_id":43678,"intl_designator":"2018-084H","name":"DIWATA-2B","alt_names":[],"object_type":"PAYLOAD","status":"ACTIVE","operator":null,"country":"RP","launch_date":"2018-10-29","launch_site_code":"TANSC","launch_vehicle":null,"mission":null,"orbit_class":"UNKNOWN","rcs_meters":null,"size_class":null,"mass_kg":null,"dimensions":null,"purposes":["comms"],"wikipedia_slug":null,"has_3d_model":false,"image_url":null,"decayed_at":null,"tle_current":{"epoch":"2026-05-25T03:52:49.782720Z","epoch_age_seconds":68058,"freshness":"FRESH","line1":"1 43678U 18084H   26145.16168730  .00002159  00000+0  17717-3 0  9991","line2":"2 43678  98.1136 340.3777 0011607 249.1383 110.8597 15.00324226412760","mean_motion":15.00324226,"eccentricity":0.0011607,"inclination_deg":98.1136,"raan_deg":340.3777,"arg_perigee_deg":249.1383,"mean_anomaly_deg":110.8597,"bstar":0.00017717,"rev_number":41276,"period_min":95.979254020257,"perigee_km":557.83580468818,"apogee_km":573.95568229893,"semimajor_km":6944.0327434936,"source":"CELESTRAK","updated_at":"2026-05-25T13:38:23.288334Z"}}}